Time,TemperatureF,DewpointF,PressureIn,WindDirection,WindDirectionDegrees,WindSpeedMPH,WindSpeedGustMPH,Humidity,HourlyPrecipIn,Conditions,Clouds,dailyrainin,SoftwareType,DateUTC
2013-07-04 00:02:00,78.4,76.3,29.91,North,-999,0.0,0.0,93,0.00,,,-99.99,FreeWX 2.03,2013-07-04 05:02:00,
2013-07-04 00:07:00,78.4,76.3,29.91,North,-999,0.0,0.0,93,0.00,,,-99.99,FreeWX 2.03,2013-07-04 05:07:00,
2013-07-04 00:12:00,78.4,76.6,29.91,North,-999,0.0,0.0,94,0.00,,,-99.99,FreeWX 2.03,2013-07-04 05:12:00,
2013-07-04 00:17:00,78.3,76.5,29.91,North,-999,0.0,0.0,94,0.00,,,-99.99,FreeWX 2.03,2013-07-04 05:17:00,
2013-07-04 00:22:00,78.3,76.5,29.91,North,-999,0.0,0.0,94,0.00,,,-99.99,FreeWX 2.03,2013-07-04 05:22:00,
2013-07-04 00:27:00,78.3,76.5,29.91,North,-999,0.0,0.0,94,0.00,,,-99.99,FreeWX 2.03,2013-07-04 05:27:00,
2013-07-04 00:32:00,78.3,76.6,29.91,North,-999,0.0,0.0,95,0.00,,,-99.99,FreeWX 2.03,2013-07-04 05:32:00,
2013-07-04 00:37:00,78.1,76.5,29.91,North,-999,0.0,0.0,95,0.00,,,-99.99,FreeWX 2.03,2013-07-04 05:37:00,
2013-07-04 00:42:00,78.1,76.5,29.91,North,-999,0.0,0.0,95,0.00,,,-99.99,FreeWX 2.03,2013-07-04 05:42:00,
2013-07-04 00:47:00,78.1,76.5,29.91,North,-999,0.0,0.0,95,0.00,,,-99.99,FreeWX 2.03,2013-07-04 05:47:00,
2013-07-04 00:52:00,78.1,76.5,29.91,North,-999,0.0,0.0,95,0.00,,,-99.99,FreeWX 2.03,2013-07-04 05:52:00,
2013-07-04 00:57:00,78.1,76.5,29.91,North,-999,0.0,0.0,95,0.00,,,-99.99,FreeWX 2.03,2013-07-04 05:57:00,
2013-07-04 01:02:00,78.1,76.5,29.91,North,-999,0.0,0.0,95,0.00,,,-99.99,FreeWX 2.03,2013-07-04 06:02:00,
2013-07-04 01:07:00,77.9,76.3,29.91,North,-999,0.0,0.0,95,0.00,,,-99.99,FreeWX 2.03,2013-07-04 06:07:00,
2013-07-04 01:12:00,77.9,76.3,29.91,North,-999,0.0,0.0,95,0.00,,,-99.99,FreeWX 2.03,2013-07-04 06:12:00,
2013-07-04 01:17:00,77.7,76.1,29.91,North,-999,0.0,0.0,95,0.00,,,-99.99,FreeWX 2.03,2013-07-04 06:17:00,
2013-07-04 01:22:00,77.7,76.1,29.91,North,-999,0.0,0.0,95,0.00,,,-99.99,FreeWX 2.03,2013-07-04 06:22:00,
2013-07-04 01:27:00,77.7,76.1,29.91,North,-999,0.0,0.0,95,0.00,,,-99.99,FreeWX 2.03,2013-07-04 06:27:00,
2013-07-04 01:32:00,77.5,75.9,29.91,North,-999,0.0,0.0,95,0.00,,,-99.99,FreeWX 2.03,2013-07-04 06:32:00,
2013-07-04 01:37:00,77.5,75.9,29.91,North,-999,0.0,0.0,95,0.00,,,-99.99,FreeWX 2.03,2013-07-04 06:37:00,
2013-07-04 01:42:00,77.5,76.3,29.91,North,-999,0.0,0.0,96,0.00,,,-99.99,FreeWX 2.03,2013-07-04 06:42:00,
2013-07-04 01:47:00,77.4,76.1,29.91,North,-999,0.0,0.0,96,0.00,,,-99.99,FreeWX 2.03,2013-07-04 06:47:00,
2013-07-04 01:52:00,77.4,76.1,29.91,North,-999,0.0,0.0,96,0.00,,,-99.99,FreeWX 2.03,2013-07-04 06:52:00,
2013-07-04 01:57:00,77.4,76.1,29.91,North,-999,0.0,0.0,96,0.00,,,-99.99,FreeWX 2.03,2013-07-04 06:57:00,
2013-07-04 02:02:00,77.4,76.1,29.91,North,-999,0.0,0.0,96,0.00,,,-99.99,FreeWX 2.03,2013-07-04 07:02:00,
2013-07-04 02:07:00,77.4,76.1,29.91,North,-999,0.0,0.0,96,0.00,,,-99.99,FreeWX 2.03,2013-07-04 07:07:00,
2013-07-04 02:12:00,77.2,75.9,29.91,North,-999,0.0,0.0,96,0.00,,,-99.99,FreeWX 2.03,2013-07-04 07:12:00,
2013-07-04 02:17:00,77.2,75.9,29.91,North,-999,0.0,0.0,96,0.00,,,-99.99,FreeWX 2.03,2013-07-04 07:17:00,
2013-07-04 02:22:00,77.2,75.9,29.91,North,-999,0.0,0.0,96,0.00,,,-99.99,FreeWX 2.03,2013-07-04 07:22:00,
2013-07-04 02:27:00,77.0,75.7,29.91,North,-999,0.0,0.0,96,0.00,,,-99.99,FreeWX 2.03,2013-07-04 07:27:00,
2013-07-04 02:32:00,77.0,75.7,29.91,North,-999,0.0,0.0,96,0.00,,,-99.99,FreeWX 2.03,2013-07-04 07:32:00,
2013-07-04 02:37:00,77.0,75.7,29.91,North,-999,0.0,0.0,96,0.00,,,-99.99,FreeWX 2.03,2013-07-04 07:37:00,
2013-07-04 02:42:00,76.8,75.6,29.91,North,-999,0.0,0.0,96,0.00,,,-99.99,FreeWX 2.03,2013-07-04 07:42:00,
2013-07-04 02:47:00,76.8,75.9,29.91,North,-999,0.0,0.0,97,0.00,,,-99.99,FreeWX 2.03,2013-07-04 07:47:00,
2013-07-04 02:52:00,76.8,75.9,29.91,North,-999,0.0,0.0,97,0.00,,,-99.99,FreeWX 2.03,2013-07-04 07:52:00,
2013-07-04 02:57:00,76.8,75.9,29.91,North,-999,0.0,0.0,97,0.00,,,-99.99,FreeWX 2.03,2013-07-04 07:57:00,
2013-07-04 03:02:00,76.6,75.7,29.91,North,-999,0.0,0.0,97,0.00,,,-99.99,FreeWX 2.03,2013-07-04 08:02:00,
2013-07-04 03:07:00,76.6,76.1,29.91,North,-999,0.0,0.0,98,0.00,,,-99.99,FreeWX 2.03,2013-07-04 08:07:00,
2013-07-04 03:12:00,76.5,75.9,29.91,North,-999,0.0,0.0,98,0.00,,,-99.99,FreeWX 2.03,2013-07-04 08:12:00,
2013-07-04 03:17:00,76.5,75.9,29.91,North,-999,0.0,0.0,98,0.00,,,-99.99,FreeWX 2.03,2013-07-04 08:17:00,
2013-07-04 03:22:00,76.5,75.9,29.91,North,-999,0.0,0.0,98,0.00,,,-99.99,FreeWX 2.03,2013-07-04 08:22:00,
2013-07-04 03:27:00,76.5,75.9,29.91,North,-999,0.0,0.0,98,0.00,,,-99.99,FreeWX 2.03,2013-07-04 08:27:00,
2013-07-04 03:32:00,76.3,75.7,29.91,North,-999,0.0,0.0,98,0.00,,,-99.99,FreeWX 2.03,2013-07-04 08:32:00,
2013-07-04 03:37:00,76.3,75.7,29.91,North,-999,0.0,0.0,98,0.00,,,-99.99,FreeWX 2.03,2013-07-04 08:37:00,
2013-07-04 03:42:00,76.3,75.7,29.91,North,-999,0.0,0.0,98,0.00,,,-99.99,FreeWX 2.03,2013-07-04 08:42:00,
2013-07-04 03:47:00,76.3,75.7,29.91,North,-999,0.0,0.0,98,0.00,,,-99.99,FreeWX 2.03,2013-07-04 08:47:00,
2013-07-04 03:52:00,76.3,75.9,29.91,North,-999,0.0,0.0,99,0.00,,,-99.99,FreeWX 2.03,2013-07-04 08:52:00,
2013-07-04 03:57:00,76.1,75.7,29.91,North,-999,0.0,0.0,99,0.00,,,-99.99,FreeWX 2.03,2013-07-04 08:57:00,
2013-07-04 04:02:00,76.1,75.7,29.91,North,-999,0.0,0.0,99,0.00,,,-99.99,FreeWX 2.03,2013-07-04 09:02:00,
2013-07-04 04:07:00,76.1,75.7,29.91,North,-999,0.0,0.0,99,0.00,,,-99.99,FreeWX 2.03,2013-07-04 09:07:00,
2013-07-04 04:12:00,76.1,75.7,29.91,North,-999,0.0,0.0,99,0.00,,,-99.99,FreeWX 2.03,2013-07-04 09:12:00,
2013-07-04 04:17:00,75.9,75.6,29.91,North,-999,0.0,0.0,99,0.00,,,-99.99,FreeWX 2.03,2013-07-04 09:17:00,
2013-07-04 04:22:00,75.9,75.6,29.91,North,-999,0.0,0.0,99,0.00,,,-99.99,FreeWX 2.03,2013-07-04 09:22:00,
2013-07-04 04:27:00,75.9,75.6,29.91,North,-999,0.0,0.0,99,0.00,,,-99.99,FreeWX 2.03,2013-07-04 09:27:00,
2013-07-04 04:32:00,75.9,75.6,29.91,North,-999,0.0,0.0,99,0.00,,,-99.99,FreeWX 2.03,2013-07-04 09:32:00,
2013-07-04 04:37:00,75.9,75.6,29.91,North,-999,0.0,0.0,99,0.00,,,-99.99,FreeWX 2.03,2013-07-04 09:37:00,
2013-07-04 04:42:00,75.9,75.6,29.88,North,-999,0.0,0.0,99,0.00,,,-99.99,FreeWX 2.03,2013-07-04 09:42:00,
2013-07-04 04:47:00,75.9,75.6,29.88,North,-999,0.0,0.0,99,0.00,,,-99.99,FreeWX 2.03,2013-07-04 09:47:00,
2013-07-04 04:52:00,75.9,75.6,29.88,North,-999,0.0,0.0,99,0.00,,,-99.99,FreeWX 2.03,2013-07-04 09:52:00,
2013-07-04 04:57:00,75.7,75.4,29.88,North,-999,0.0,0.0,99,0.00,,,-99.99,FreeWX 2.03,2013-07-04 09:57:00,
2013-07-04 05:02:00,75.7,75.4,29.88,North,-999,0.0,0.0,99,0.00,,,-99.99,FreeWX 2.03,2013-07-04 10:02:00,
2013-07-04 05:07:00,75.7,75.4,29.88,North,-999,0.0,0.0,99,0.00,,,-99.99,FreeWX 2.03,2013-07-04 10:07:00,
2013-07-04 05:12:00,75.9,75.6,29.88,North,-999,0.0,0.0,99,0.00,,,-99.99,FreeWX 2.03,2013-07-04 10:12:00,
2013-07-04 05:17:00,75.9,75.6,29.88,North,-999,0.0,0.0,99,0.00,,,-99.99,FreeWX 2.03,2013-07-04 10:17:00,
2013-07-04 05:22:00,75.9,75.6,29.88,North,-999,0.0,0.0,99,0.00,,,-99.99,FreeWX 2.03,2013-07-04 10:22:00,
2013-07-04 05:27:00,75.9,75.6,29.88,North,-999,0.0,0.0,99,0.00,,,-99.99,FreeWX 2.03,2013-07-04 10:27:00,
2013-07-04 05:32:00,75.9,75.9,29.88,North,-999,0.0,0.0,100,0.00,,,-99.99,FreeWX 2.03,2013-07-04 10:32:00,
2013-07-04 05:37:00,76.1,76.1,29.88,North,-999,0.0,0.0,100,0.00,,,-99.99,FreeWX 2.03,2013-07-04 10:37:00,
2013-07-04 05:42:00,75.9,75.9,29.91,North,-999,0.0,0.0,100,0.00,,,-99.99,FreeWX 2.03,2013-07-04 10:42:00,
2013-07-04 05:47:00,75.7,75.7,29.91,North,-999,0.0,0.0,100,0.00,,,-99.99,FreeWX 2.03,2013-07-04 10:47:00,
2013-07-04 05:52:00,75.7,75.7,29.91,North,-999,0.0,0.0,100,0.00,,,-99.99,FreeWX 2.03,2013-07-04 10:52:00,
2013-07-04 05:57:00,75.7,75.7,29.91,North,-999,0.0,0.0,100,0.00,,,-99.99,FreeWX 2.03,2013-07-04 10:57:00,
2013-07-04 06:02:00,75.7,75.7,29.91,North,-999,0.0,0.0,100,0.00,,,-99.99,FreeWX 2.03,2013-07-04 11:02:00,
2013-07-04 06:07:00,75.7,75.4,29.91,North,-999,0.0,0.0,99,0.00,,,-99.99,FreeWX 2.03,2013-07-04 11:07:00,
2013-07-04 06:12:00,75.7,75.4,29.91,North,-999,0.0,0.0,99,0.00,,,-99.99,FreeWX 2.03,2013-07-04 11:12:00,
2013-07-04 06:17:00,75.6,75.2,29.91,North,-999,0.0,0.0,99,0.00,,,-99.99,FreeWX 2.03,2013-07-04 11:17:00,
2013-07-04 06:22:00,75.4,75.0,29.91,North,-999,0.0,0.0,99,0.00,,,-99.99,FreeWX 2.03,2013-07-04 11:22:00,
2013-07-04 06:27:00,75.4,75.0,29.91,North,-999,0.0,0.0,99,0.00,,,-99.99,FreeWX 2.03,2013-07-04 11:27:00,
2013-07-04 06:32:00,75.2,74.8,29.91,North,-999,0.0,0.0,99,0.00,,,-99.99,FreeWX 2.03,2013-07-04 11:32:00,
2013-07-04 06:37:00,75.2,74.8,29.91,North,-999,0.0,0.0,99,0.00,,,-99.99,FreeWX 2.03,2013-07-04 11:37:00,
2013-07-04 06:42:00,75.2,74.8,29.91,North,-999,0.0,0.0,99,0.00,,,-99.99,FreeWX 2.03,2013-07-04 11:42:00,
2013-07-04 06:47:00,75.2,74.8,29.91,North,-999,0.0,0.0,99,0.00,,,-99.99,FreeWX 2.03,2013-07-04 11:47:00,
2013-07-04 06:52:00,75.4,75.0,29.91,North,-999,0.0,0.0,99,0.00,,,-99.99,FreeWX 2.03,2013-07-04 11:52:00,
2013-07-04 06:57:00,75.4,75.0,29.91,North,-999,0.0,0.0,99,0.00,,,-99.99,FreeWX 2.03,2013-07-04 11:57:00,
2013-07-04 07:02:00,75.4,75.4,29.91,North,-999,0.0,0.0,100,0.00,,,-99.99,FreeWX 2.03,2013-07-04 12:02:00,
2013-07-04 07:07:00,75.4,75.4,29.91,North,-999,0.0,0.0,100,0.00,,,-99.99,FreeWX 2.03,2013-07-04 12:07:00,
2013-07-04 07:12:00,75.4,75.4,29.91,North,-999,0.0,0.0,100,0.00,,,-99.99,FreeWX 2.03,2013-07-04 12:12:00,
2013-07-04 07:17:00,75.4,75.4,29.91,North,-999,0.0,0.0,100,0.00,,,-99.99,FreeWX 2.03,2013-07-04 12:17:00,
2013-07-04 07:22:00,75.6,75.6,29.91,North,-999,0.0,0.0,100,0.00,,,-99.99,FreeWX 2.03,2013-07-04 12:22:00,
2013-07-04 07:27:00,75.6,75.6,29.91,North,-999,0.0,0.0,100,0.00,,,-99.99,FreeWX 2.03,2013-07-04 12:27:00,
2013-07-04 07:32:00,75.7,75.7,29.91,North,-999,0.0,0.0,100,0.00,,,-99.99,FreeWX 2.03,2013-07-04 12:32:00,
2013-07-04 07:37:00,75.7,75.7,29.91,North,-999,0.0,0.0,100,0.00,,,-99.99,FreeWX 2.03,2013-07-04 12:37:00,
2013-07-04 07:42:00,75.9,75.9,29.91,North,-999,0.0,0.0,100,0.00,,,-99.99,FreeWX 2.03,2013-07-04 12:42:00,
2013-07-04 07:47:00,76.1,76.1,29.91,North,-999,0.0,0.0,100,0.00,,,-99.99,FreeWX 2.03,2013-07-04 12:47:00,
2013-07-04 07:52:00,76.1,76.1,29.91,North,-999,0.0,0.0,100,0.00,,,-99.99,FreeWX 2.03,2013-07-04 12:52:00,
2013-07-04 07:57:00,76.3,76.3,29.91,North,-999,0.0,0.0,100,0.00,,,-99.99,FreeWX 2.03,2013-07-04 12:57:00,
2013-07-04 08:02:00,76.3,76.3,29.91,North,-999,0.0,0.0,100,0.00,,,-99.99,FreeWX 2.03,2013-07-04 13:02:00,
2013-07-04 08:07:00,76.3,76.3,29.91,North,-999,0.0,0.0,100,0.00,,,-99.99,FreeWX 2.03,2013-07-04 13:07:00,
2013-07-04 08:12:00,76.5,76.5,29.91,North,-999,0.0,0.0,100,0.00,,,-99.99,FreeWX 2.03,2013-07-04 13:12:00,
2013-07-04 08:18:00,76.6,76.6,29.91,North,-999,0.0,0.0,100,0.00,,,-99.99,FreeWX 2.03,2013-07-04 13:18:00,
2013-07-04 08:23:00,76.8,76.8,29.91,North,-999,0.0,0.0,100,0.00,,,-99.99,FreeWX 2.03,2013-07-04 13:23:00,
2013-07-04 08:28:00,77.0,77.0,29.94,North,-999,0.0,0.0,100,0.00,,,-99.99,FreeWX 2.03,2013-07-04 13:28:00,
2013-07-04 08:33:00,77.0,76.6,29.94,North,-999,0.0,0.0,99,0.00,,,-99.99,FreeWX 2.03,2013-07-04 13:33:00,
2013-07-04 08:38:00,77.2,76.8,29.94,North,-999,0.0,0.0,99,0.00,,,-99.99,FreeWX 2.03,2013-07-04 13:38:00,
2013-07-04 08:43:00,77.4,77.0,29.94,North,-999,0.0,0.0,99,0.00,,,-99.99,FreeWX 2.03,2013-07-04 13:43:00,
2013-07-04 08:48:00,77.4,77.0,29.94,North,-999,0.0,0.0,99,0.00,,,-99.99,FreeWX 2.03,2013-07-04 13:48:00,
2013-07-04 08:53:00,77.5,77.2,29.94,North,-999,0.0,0.0,99,0.00,,,-99.99,FreeWX 2.03,2013-07-04 13:53:00,
2013-07-04 08:58:00,77.9,77.5,29.94,North,-999,0.0,0.0,99,0.00,,,-99.99,FreeWX 2.03,2013-07-04 13:58:00,
2013-07-04 09:03:00,78.1,77.7,29.94,North,-999,0.0,0.0,99,0.00,,,-99.99,FreeWX 2.03,2013-07-04 14:03:00,
2013-07-04 09:08:00,78.3,77.7,29.94,North,-999,0.0,0.0,98,0.00,,,-99.99,FreeWX 2.03,2013-07-04 14:08:00,
2013-07-04 09:13:00,78.4,77.9,29.94,North,-999,0.0,0.0,98,0.00,,,-99.99,FreeWX 2.03,2013-07-04 14:13:00,
2013-07-04 09:18:00,78.6,77.7,29.94,North,-999,0.0,0.0,97,0.00,,,-99.99,FreeWX 2.03,2013-07-04 14:18:00,
2013-07-04 09:23:00,79.0,78.1,29.94,North,-999,0.0,0.0,97,0.00,,,-99.99,FreeWX 2.03,2013-07-04 14:23:00,
2013-07-04 09:28:00,79.2,77.9,29.94,North,-999,0.0,0.0,96,0.00,,,-99.99,FreeWX 2.03,2013-07-04 14:28:00,
2013-07-04 09:33:00,79.2,77.9,29.94,North,-999,0.0,0.0,96,0.00,,,-99.99,FreeWX 2.03,2013-07-04 14:33:00,
2013-07-04 09:38:00,79.3,77.7,29.94,North,-999,0.0,0.0,95,0.00,,,-99.99,FreeWX 2.03,2013-07-04 14:38:00,
2013-07-04 09:43:00,79.5,77.9,29.94,North,-999,0.0,0.0,95,0.00,,,-99.99,FreeWX 2.03,2013-07-04 14:43:00,
2013-07-04 09:48:00,79.9,78.1,29.94,North,-999,0.0,0.0,94,0.00,,,-99.99,FreeWX 2.03,2013-07-04 14:48:00,
2013-07-04 09:53:00,80.1,78.1,29.94,North,-999,0.0,0.0,94,0.00,,,-99.99,FreeWX 2.03,2013-07-04 14:53:00,
2013-07-04 09:58:00,80.2,78.1,29.94,North,-999,0.0,0.0,93,0.00,,,-99.99,FreeWX 2.03,2013-07-04 14:58:00,
2013-07-04 10:03:00,80.4,77.9,29.94,North,-999,0.0,0.0,92,0.00,,,-99.99,FreeWX 2.03,2013-07-04 15:03:00,
2013-07-04 10:08:00,80.6,77.7,29.94,North,-999,0.0,0.0,91,0.00,,,-99.99,FreeWX 2.03,2013-07-04 15:08:00,
2013-07-04 10:13:00,81.0,77.7,29.94,North,-999,0.0,0.0,90,0.00,,,-99.99,FreeWX 2.03,2013-07-04 15:13:00,
2013-07-04 10:18:00,81.3,77.7,29.94,North,-999,0.0,0.0,89,0.00,,,-99.99,FreeWX 2.03,2013-07-04 15:18:00,
2013-07-04 10:23:00,81.7,78.1,29.94,North,-999,0.0,0.0,89,0.00,,,-99.99,FreeWX 2.03,2013-07-04 15:23:00,
2013-07-04 10:28:00,82.0,78.1,29.94,North,-999,0.0,0.0,88,0.00,,,-99.99,FreeWX 2.03,2013-07-04 15:28:00,
2013-07-04 10:33:00,82.4,78.1,29.94,North,-999,0.0,0.0,87,0.00,,,-99.99,FreeWX 2.03,2013-07-04 15:33:00,
2013-07-04 10:38:00,82.8,78.4,29.94,North,-999,0.0,0.0,87,0.00,,,-99.99,FreeWX 2.03,2013-07-04 15:38:00,
2013-07-04 10:43:00,83.1,78.4,29.94,North,-999,0.0,0.0,86,0.00,,,-99.99,FreeWX 2.03,2013-07-04 15:43:00,
2013-07-04 10:48:00,83.8,78.8,29.94,North,-999,0.0,0.0,85,0.00,,,-99.99,FreeWX 2.03,2013-07-04 15:48:00,
2013-07-04 10:53:00,84.4,78.6,29.94,North,-999,0.0,0.0,83,0.00,,,-99.99,FreeWX 2.03,2013-07-04 15:53:00,
2013-07-04 10:58:00,85.1,79.0,29.94,North,-999,0.0,0.0,82,0.00,,,-99.99,FreeWX 2.03,2013-07-04 15:58:00,
2013-07-04 11:03:00,86.0,78.6,29.94,North,-999,0.0,0.0,79,0.00,,,-99.99,FreeWX 2.03,2013-07-04 16:03:00,
2013-07-04 11:08:00,86.5,78.4,29.94,North,-999,0.0,0.0,77,0.00,,,-99.99,FreeWX 2.03,2013-07-04 16:08:00,
2013-07-04 11:13:00,87.3,78.8,29.94,North,-999,0.0,0.0,76,0.00,,,-99.99,FreeWX 2.03,2013-07-04 16:13:00,
2013-07-04 11:18:00,87.8,78.1,29.94,North,-999,0.0,0.0,73,0.00,,,-99.99,FreeWX 2.03,2013-07-04 16:18:00,
2013-07-04 11:23:00,88.3,78.1,29.94,North,-999,0.0,0.0,72,0.00,,,-99.99,FreeWX 2.03,2013-07-04 16:23:00,
2013-07-04 11:28:00,88.7,77.5,29.94,North,-999,0.0,0.0,70,0.00,,,-99.99,FreeWX 2.03,2013-07-04 16:28:00,
2013-07-04 11:33:00,89.1,77.0,29.94,North,-999,0.0,0.0,68,0.00,,,-99.99,FreeWX 2.03,2013-07-04 16:33:00,
2013-07-04 11:38:00,89.4,76.5,29.94,North,-999,0.0,0.0,66,0.00,,,-99.99,FreeWX 2.03,2013-07-04 16:38:00,
2013-07-04 11:43:00,89.8,76.5,29.94,North,-999,0.0,0.0,65,0.00,,,-99.99,FreeWX 2.03,2013-07-04 16:43:00,
2013-07-04 11:48:00,90.1,76.3,29.94,North,-999,0.0,0.0,64,0.00,,,-99.99,FreeWX 2.03,2013-07-04 16:48:00,
2013-07-04 11:53:00,90.1,75.7,29.94,North,-999,0.0,0.0,63,0.00,,,-99.99,FreeWX 2.03,2013-07-04 16:53:00,
2013-07-04 11:58:00,90.3,75.9,29.94,North,-999,0.0,0.0,63,0.00,,,-99.99,FreeWX 2.03,2013-07-04 16:58:00,
2013-07-04 12:08:00,90.5,74.7,29.94,North,-999,0.0,0.0,60,0.00,,,-99.99,FreeWX 2.03,2013-07-04 17:08:00,
2013-07-04 12:13:00,90.7,75.4,29.94,North,-999,0.0,0.0,61,0.00,,,-99.99,FreeWX 2.03,2013-07-04 17:13:00,
2013-07-04 12:18:00,90.7,75.4,29.94,North,-999,0.0,0.0,61,0.00,,,-99.99,FreeWX 2.03,2013-07-04 17:18:00,
2013-07-04 12:23:00,90.7,74.3,29.94,North,-999,0.0,0.0,59,0.00,,,-99.99,FreeWX 2.03,2013-07-04 17:23:00,
2013-07-04 12:28:00,90.9,73.9,29.94,North,-999,0.0,0.0,58,0.00,,,-99.99,FreeWX 2.03,2013-07-04 17:28:00,
2013-07-04 12:33:00,90.9,73.9,29.94,North,-999,0.0,0.0,58,0.00,,,-99.99,FreeWX 2.03,2013-07-04 17:33:00,
2013-07-04 12:38:00,90.9,74.5,29.94,North,-999,0.0,0.0,59,0.00,,,-99.99,FreeWX 2.03,2013-07-04 17:38:00,
2013-07-04 12:43:00,90.9,73.9,29.94,North,-999,0.0,0.0,58,0.00,,,-99.99,FreeWX 2.03,2013-07-04 17:43:00,
2013-07-04 12:48:00,90.9,73.9,29.94,North,-999,0.0,0.0,58,0.00,,,-99.99,FreeWX 2.03,2013-07-04 17:48:00,
2013-07-04 12:53:00,90.9,73.4,29.94,North,-999,0.0,0.0,57,0.00,,,-99.99,FreeWX 2.03,2013-07-04 17:53:00,
2013-07-04 12:58:00,91.0,74.1,29.94,North,-999,0.0,0.0,58,0.00,,,-99.99,FreeWX 2.03,2013-07-04 17:58:00,
2013-07-04 13:03:00,90.9,73.4,29.94,North,-999,0.0,0.0,57,0.00,,,-99.99,FreeWX 2.03,2013-07-04 18:03:00,
2013-07-04 13:08:00,90.7,72.9,29.94,North,-999,0.0,0.0,56,0.00,,,-99.99,FreeWX 2.03,2013-07-04 18:08:00,
2013-07-04 13:13:00,90.7,73.4,29.91,North,-999,0.0,0.0,57,0.00,,,-99.99,FreeWX 2.03,2013-07-04 18:13:00,
2013-07-04 13:18:00,90.7,73.4,29.91,North,-999,0.0,0.0,57,0.00,,,-99.99,FreeWX 2.03,2013-07-04 18:18:00,
2013-07-04 13:23:00,90.5,73.2,29.91,North,-999,0.0,0.0,57,0.00,,,-99.99,FreeWX 2.03,2013-07-04 18:23:00,
2013-07-04 13:28:00,90.3,73.6,29.91,North,-999,0.0,0.0,58,0.00,,,-99.99,FreeWX 2.03,2013-07-04 18:28:00,
2013-07-04 13:33:00,90.1,73.4,29.91,North,-999,0.0,0.0,58,0.00,,,-99.99,FreeWX 2.03,2013-07-04 18:33:00,
2013-07-04 13:38:00,90.1,73.4,29.91,North,-999,0.0,0.0,58,0.00,,,-99.99,FreeWX 2.03,2013-07-04 18:38:00,
2013-07-04 13:43:00,90.1,72.9,29.94,North,-999,0.0,0.0,57,0.00,,,-99.99,FreeWX 2.03,2013-07-04 18:43:00,
2013-07-04 13:48:00,90.1,72.9,29.94,North,-999,0.0,0.0,57,0.00,,,-99.99,FreeWX 2.03,2013-07-04 18:48:00,
2013-07-04 13:53:00,90.1,72.9,29.94,North,-999,0.0,0.0,57,0.00,,,-99.99,FreeWX 2.03,2013-07-04 18:53:00,
2013-07-04 13:58:00,89.8,72.5,29.91,North,-999,0.0,0.0,57,0.00,,,-99.99,FreeWX 2.03,2013-07-04 18:58:00,
2013-07-04 14:03:00,89.6,72.3,29.91,North,-999,0.0,0.0,57,0.00,,,-99.99,FreeWX 2.03,2013-07-04 19:03:00,
2013-07-04 14:08:00,89.6,71.8,29.91,North,-999,0.0,0.0,56,0.00,,,-99.99,FreeWX 2.03,2013-07-04 19:08:00,
2013-07-04 14:13:00,89.6,72.9,29.91,North,-999,0.0,0.0,58,0.00,,,-99.99,FreeWX 2.03,2013-07-04 19:13:00,
2013-07-04 14:18:00,89.4,72.1,29.91,North,-999,0.0,0.0,57,0.00,,,-99.99,FreeWX 2.03,2013-07-04 19:18:00,
2013-07-04 14:23:00,89.4,72.7,29.91,North,-999,0.0,0.0,58,0.00,,,-99.99,FreeWX 2.03,2013-07-04 19:23:00,
2013-07-04 14:28:00,89.4,72.7,29.91,North,-999,0.0,0.0,58,0.00,,,-99.99,FreeWX 2.03,2013-07-04 19:28:00,
2013-07-04 14:33:00,89.2,72.5,29.91,North,-999,0.0,0.0,58,0.00,,,-99.99,FreeWX 2.03,2013-07-04 19:33:00,
2013-07-04 14:38:00,89.2,72.5,29.91,North,-999,0.0,0.0,58,0.00,,,-99.99,FreeWX 2.03,2013-07-04 19:38:00,
2013-07-04 14:43:00,89.1,72.9,29.91,North,-999,0.0,0.0,59,0.00,,,-99.99,FreeWX 2.03,2013-07-04 19:43:00,
2013-07-04 14:48:00,89.1,72.9,29.91,North,-999,0.0,0.0,59,0.00,,,-99.99,FreeWX 2.03,2013-07-04 19:48:00,
2013-07-04 14:53:00,88.9,72.1,29.91,North,-999,0.0,0.0,58,0.00,,,-99.99,FreeWX 2.03,2013-07-04 19:53:00,
2013-07-04 14:58:00,88.7,73.0,29.91,North,-999,0.0,0.0,60,0.00,,,-99.99,FreeWX 2.03,2013-07-04 19:58:00,
2013-07-04 15:03:00,88.7,73.4,29.91,North,-999,0.0,0.0,61,0.00,,,-99.99,FreeWX 2.03,2013-07-04 20:03:00,
2013-07-04 15:08:00,88.7,73.0,29.91,North,-999,0.0,0.0,60,0.00,,,-99.99,FreeWX 2.03,2013-07-04 20:08:00,
2013-07-04 15:13:00,88.7,72.5,29.91,North,-999,0.0,0.0,59,0.00,,,-99.99,FreeWX 2.03,2013-07-04 20:13:00,
2013-07-04 15:23:00,88.7,73.0,29.91,North,-999,0.0,0.0,60,0.00,,,-99.99,FreeWX 2.03,2013-07-04 20:23:00,
2013-07-04 15:28:00,88.9,73.2,29.88,North,-999,0.0,0.0,60,0.00,,,-99.99,FreeWX 2.03,2013-07-04 20:28:00,
2013-07-04 15:33:00,88.9,72.7,29.88,North,-999,0.0,0.0,59,0.00,,,-99.99,FreeWX 2.03,2013-07-04 20:33:00,
2013-07-04 15:38:00,88.9,72.7,29.88,North,-999,0.0,0.0,59,0.00,,,-99.99,FreeWX 2.03,2013-07-04 20:38:00,
2013-07-04 15:43:00,88.9,72.7,29.88,North,-999,0.0,0.0,59,0.00,,,-99.99,FreeWX 2.03,2013-07-04 20:43:00,
2013-07-04 15:48:00,88.9,72.1,29.88,North,-999,0.0,0.0,58,0.00,,,-99.99,FreeWX 2.03,2013-07-04 20:48:00,
2013-07-04 15:54:00,88.7,71.4,29.88,North,-999,0.0,0.0,57,0.00,,,-99.99,FreeWX 2.03,2013-07-04 20:54:00,
2013-07-04 15:59:00,88.7,71.4,29.88,North,-999,0.0,0.0,57,0.00,,,-99.99,FreeWX 2.03,2013-07-04 20:59:00,
2013-07-04 16:04:00,88.7,71.4,29.88,North,-999,0.0,0.0,57,0.00,,,-99.99,FreeWX 2.03,2013-07-04 21:04:00,
2013-07-04 16:09:00,88.9,71.6,29.88,North,-999,0.0,0.0,57,0.00,,,-99.99,FreeWX 2.03,2013-07-04 21:09:00,
2013-07-04 16:14:00,88.9,71.1,29.88,North,-999,0.0,0.0,56,0.00,,,-99.99,FreeWX 2.03,2013-07-04 21:14:00,
2013-07-04 16:19:00,88.7,71.4,29.88,North,-999,0.0,0.0,57,0.00,,,-99.99,FreeWX 2.03,2013-07-04 21:19:00,
2013-07-04 16:24:00,88.9,71.6,29.88,North,-999,0.0,0.0,57,0.00,,,-99.99,FreeWX 2.03,2013-07-04 21:24:00,
2013-07-04 16:29:00,88.7,70.9,29.88,North,-999,0.0,0.0,56,0.00,,,-99.99,FreeWX 2.03,2013-07-04 21:29:00,
2013-07-04 16:34:00,88.7,71.4,29.88,North,-999,0.0,0.0,57,0.00,,,-99.99,FreeWX 2.03,2013-07-04 21:34:00,
2013-07-04 16:39:00,88.7,71.4,29.88,North,-999,0.0,0.0,57,0.00,,,-99.99,FreeWX 2.03,2013-07-04 21:39:00,
2013-07-04 16:44:00,88.7,72.0,29.88,North,-999,0.0,0.0,58,0.00,,,-99.99,FreeWX 2.03,2013-07-04 21:44:00,
2013-07-04 16:49:00,88.5,71.2,29.88,North,-999,0.0,0.0,57,0.00,,,-99.99,FreeWX 2.03,2013-07-04 21:49:00,
2013-07-04 16:54:00,88.3,71.1,29.88,North,-999,0.0,0.0,57,0.00,,,-99.99,FreeWX 2.03,2013-07-04 21:54:00,
2013-07-04 16:59:00,88.3,71.6,29.88,North,-999,0.0,0.0,58,0.00,,,-99.99,FreeWX 2.03,2013-07-04 21:59:00,
2013-07-04 17:04:00,88.3,71.1,29.88,North,-999,0.0,0.0,57,0.00,,,-99.99,FreeWX 2.03,2013-07-04 22:04:00,
2013-07-04 17:09:00,88.0,70.9,29.88,North,-999,0.0,0.0,57,0.00,,,-99.99,FreeWX 2.03,2013-07-04 22:09:00,
2013-07-04 17:14:00,87.8,70.7,29.88,North,-999,0.0,0.0,57,0.00,,,-99.99,FreeWX 2.03,2013-07-04 22:14:00,
2013-07-04 17:19:00,87.8,71.1,29.88,North,-999,0.0,0.0,58,0.00,,,-99.99,FreeWX 2.03,2013-07-04 22:19:00,
2013-07-04 17:24:00,87.8,70.7,29.88,North,-999,0.0,0.0,57,0.00,,,-99.99,FreeWX 2.03,2013-07-04 22:24:00,
2013-07-04 17:29:00,87.8,70.2,29.88,North,-999,0.0,0.0,56,0.00,,,-99.99,FreeWX 2.03,2013-07-04 22:29:00,
2013-07-04 17:34:00,87.8,70.2,29.88,North,-999,0.0,0.0,56,0.00,,,-99.99,FreeWX 2.03,2013-07-04 22:34:00,
2013-07-04 17:39:00,87.6,70.0,29.88,North,-999,0.0,0.0,56,0.00,,,-99.99,FreeWX 2.03,2013-07-04 22:39:00,
2013-07-04 17:44:00,87.6,70.5,29.85,North,-999,0.0,0.0,57,0.00,,,-99.99,FreeWX 2.03,2013-07-04 22:44:00,
2013-07-04 17:49:00,87.6,70.5,29.85,North,-999,0.0,0.0,57,0.00,,,-99.99,FreeWX 2.03,2013-07-04 22:49:00,
2013-07-04 17:54:00,87.6,70.0,29.85,North,-999,0.0,0.0,56,0.00,,,-99.99,FreeWX 2.03,2013-07-04 22:54:00,
2013-07-04 17:59:00,87.6,70.5,29.85,North,-999,0.0,0.0,57,0.00,,,-99.99,FreeWX 2.03,2013-07-04 22:59:00,
2013-07-04 18:04:00,87.8,70.7,29.85,North,-999,0.0,0.0,57,0.00,,,-99.99,FreeWX 2.03,2013-07-04 23:04:00,
2013-07-04 18:09:00,88.0,70.3,29.85,North,-999,0.0,0.0,56,0.00,,,-99.99,FreeWX 2.03,2013-07-04 23:09:00,
2013-07-04 18:14:00,88.0,70.3,29.85,North,-999,0.0,0.0,56,0.00,,,-99.99,FreeWX 2.03,2013-07-04 23:14:00,
2013-07-04 18:19:00,88.0,70.3,29.85,North,-999,0.0,0.0,56,0.00,,,-99.99,FreeWX 2.03,2013-07-04 23:19:00,
2013-07-04 18:24:00,88.0,70.3,29.85,North,-999,0.0,0.0,56,0.00,,,-99.99,FreeWX 2.03,2013-07-04 23:24:00,
2013-07-04 18:29:00,88.0,69.8,29.85,North,-999,0.0,0.0,55,0.00,,,-99.99,FreeWX 2.03,2013-07-04 23:29:00,
2013-07-04 18:34:00,88.0,69.3,29.85,North,-999,0.0,0.0,54,0.00,,,-99.99,FreeWX 2.03,2013-07-04 23:34:00,
2013-07-04 18:39:00,87.8,69.6,29.85,North,-999,0.0,0.0,55,0.00,,,-99.99,FreeWX 2.03,2013-07-04 23:39:00,
2013-07-04 18:44:00,87.8,69.6,29.85,North,-999,0.0,0.0,55,0.00,,,-99.99,FreeWX 2.03,2013-07-04 23:44:00,
2013-07-04 18:49:00,87.8,70.7,29.85,North,-999,0.0,0.0,57,0.00,,,-99.99,FreeWX 2.03,2013-07-04 23:49:00,
2013-07-04 18:54:00,87.6,70.5,29.85,North,-999,0.0,0.0,57,0.00,,,-99.99,FreeWX 2.03,2013-07-04 23:54:00,
2013-07-04 18:59:00,87.4,70.9,29.85,North,-999,0.0,0.0,58,0.00,,,-99.99,FreeWX 2.03,2013-07-04 23:59:00,
2013-07-04 19:04:00,87.3,71.1,29.85,North,-999,0.0,0.0,59,0.00,,,-99.99,FreeWX 2.03,2013-07-05 00:04:00,
2013-07-04 19:09:00,87.3,71.1,29.85,North,-999,0.0,0.0,59,0.00,,,-99.99,FreeWX 2.03,2013-07-05 00:09:00,
2013-07-04 19:14:00,87.1,71.1,29.85,North,-999,0.0,0.0,59,0.00,,,-99.99,FreeWX 2.03,2013-07-05 00:14:00,
2013-07-04 19:19:00,86.7,71.1,29.85,North,-999,0.0,0.0,60,0.00,,,-99.99,FreeWX 2.03,2013-07-05 00:19:00,
2013-07-04 19:24:00,86.5,71.4,29.85,North,-999,0.0,0.0,61,0.00,,,-99.99,FreeWX 2.03,2013-07-05 00:24:00,
2013-07-04 19:29:00,86.4,70.9,29.85,North,-999,0.0,0.0,60,0.00,,,-99.99,FreeWX 2.03,2013-07-05 00:29:00,
2013-07-04 19:34:00,86.2,70.7,29.85,North,-999,0.0,0.0,60,0.00,,,-99.99,FreeWX 2.03,2013-07-05 00:34:00,
2013-07-04 19:39:00,86.0,70.9,29.85,North,-999,0.0,0.0,61,0.00,,,-99.99,FreeWX 2.03,2013-07-05 00:39:00,
2013-07-04 19:44:00,85.8,70.7,29.85,North,-999,0.0,0.0,61,0.00,,,-99.99,FreeWX 2.03,2013-07-05 00:44:00,
2013-07-04 19:49:00,85.6,71.1,29.85,North,-999,0.0,0.0,62,0.00,,,-99.99,FreeWX 2.03,2013-07-05 00:49:00,
2013-07-04 19:54:00,85.5,71.4,29.85,North,-999,0.0,0.0,63,0.00,,,-99.99,FreeWX 2.03,2013-07-05 00:54:00,
2013-07-04 19:59:00,85.3,72.1,29.85,North,-999,0.0,0.0,65,0.00,,,-99.99,FreeWX 2.03,2013-07-05 00:59:00,
2013-07-04 20:04:00,85.1,72.5,29.85,North,-999,0.0,0.0,66,0.00,,,-99.99,FreeWX 2.03,2013-07-05 01:04:00,
2013-07-04 20:09:00,84.9,72.7,29.85,North,-999,0.0,0.0,67,0.00,,,-99.99,FreeWX 2.03,2013-07-05 01:09:00,
2013-07-04 20:14:00,84.7,73.0,29.85,North,-999,0.0,0.0,68,0.00,,,-99.99,FreeWX 2.03,2013-07-05 01:14:00,
2013-07-04 20:19:00,84.6,72.9,29.85,North,-999,0.0,0.0,68,0.00,,,-99.99,FreeWX 2.03,2013-07-05 01:19:00,
2013-07-04 20:24:00,84.2,72.5,29.85,North,-999,0.0,0.0,68,0.00,,,-99.99,FreeWX 2.03,2013-07-05 01:24:00,
2013-07-04 20:30:00,83.8,72.5,29.88,North,-999,0.0,0.0,69,0.00,,,-99.99,FreeWX 2.03,2013-07-05 01:30:00,
2013-07-04 20:35:00,83.7,72.9,29.88,North,-999,0.0,0.0,70,0.00,,,-99.99,FreeWX 2.03,2013-07-05 01:35:00,
2013-07-04 20:40:00,83.5,73.0,29.88,North,-999,0.0,0.0,71,0.00,,,-99.99,FreeWX 2.03,2013-07-05 01:40:00,
2013-07-04 20:45:00,83.3,73.2,29.88,North,-999,0.0,0.0,72,0.00,,,-99.99,FreeWX 2.03,2013-07-05 01:45:00,
2013-07-04 20:50:00,83.1,73.2,29.88,North,-999,0.0,0.0,72,0.00,,,-99.99,FreeWX 2.03,2013-07-05 01:50:00,
2013-07-04 20:55:00,82.9,73.4,29.88,North,-999,0.0,0.0,73,0.00,,,-99.99,FreeWX 2.03,2013-07-05 01:55:00,
2013-07-04 21:00:00,82.8,73.6,29.88,North,-999,0.0,0.0,74,0.00,,,-99.99,FreeWX 2.03,2013-07-05 02:00:00,
2013-07-04 21:05:00,82.6,73.4,29.88,North,-999,0.0,0.0,74,0.00,,,-99.99,FreeWX 2.03,2013-07-05 02:05:00,
2013-07-04 21:10:00,82.4,73.6,29.88,North,-999,0.0,0.0,75,0.00,,,-99.99,FreeWX 2.03,2013-07-05 02:10:00,
2013-07-04 21:15:00,82.4,73.6,29.88,North,-999,0.0,0.0,75,0.00,,,-99.99,FreeWX 2.03,2013-07-05 02:15:00,
2013-07-04 21:20:00,82.4,74.1,29.88,North,-999,0.0,0.0,76,0.00,,,-99.99,FreeWX 2.03,2013-07-05 02:20:00,
2013-07-04 21:25:00,82.2,74.3,29.88,North,-999,0.0,0.0,77,0.00,,,-99.99,FreeWX 2.03,2013-07-05 02:25:00,
2013-07-04 21:30:00,82.0,74.5,29.88,North,-999,0.0,0.0,78,0.00,,,-99.99,FreeWX 2.03,2013-07-05 02:30:00,
2013-07-04 21:35:00,82.0,74.8,29.88,North,-999,0.0,0.0,79,0.00,,,-99.99,FreeWX 2.03,2013-07-05 02:35:00,
2013-07-04 21:40:00,81.9,75.0,29.88,North,-999,0.0,0.0,80,0.00,,,-99.99,FreeWX 2.03,2013-07-05 02:40:00,
2013-07-04 21:45:00,81.7,75.2,29.88,North,-999,0.0,0.0,81,0.00,,,-99.99,FreeWX 2.03,2013-07-05 02:45:00,
2013-07-04 21:50:00,81.7,75.2,29.88,North,-999,0.0,0.0,81,0.00,,,-99.99,FreeWX 2.03,2013-07-05 02:50:00,
2013-07-04 21:55:00,81.7,75.6,29.88,North,-999,0.0,0.0,82,0.00,,,-99.99,FreeWX 2.03,2013-07-05 02:55:00,
2013-07-04 22:00:00,81.5,75.7,29.88,North,-999,0.0,0.0,83,0.00,,,-99.99,FreeWX 2.03,2013-07-05 03:00:00,
2013-07-04 22:05:00,81.5,75.7,29.88,North,-999,0.0,0.0,83,0.00,,,-99.99,FreeWX 2.03,2013-07-05 03:05:00,
2013-07-04 22:10:00,81.3,75.6,29.88,North,-999,0.0,0.0,83,0.00,,,-99.99,FreeWX 2.03,2013-07-05 03:10:00,
2013-07-04 22:15:00,81.5,76.1,29.91,North,-999,0.0,0.0,84,0.00,,,-99.99,FreeWX 2.03,2013-07-05 03:15:00,
2013-07-04 22:20:00,81.3,75.6,29.91,North,-999,0.0,0.0,83,0.00,,,-99.99,FreeWX 2.03,2013-07-05 03:20:00,
2013-07-04 22:25:00,81.3,75.6,29.91,North,-999,0.0,0.0,83,0.00,,,-99.99,FreeWX 2.03,2013-07-05 03:25:00,
2013-07-04 22:30:00,81.1,75.4,29.91,North,-999,0.0,0.0,83,0.00,,,-99.99,FreeWX 2.03,2013-07-05 03:30:00,
2013-07-04 22:35:00,81.1,75.7,29.91,North,-999,0.0,0.0,84,0.00,,,-99.99,FreeWX 2.03,2013-07-05 03:35:00,
2013-07-04 22:40:00,81.1,75.7,29.91,North,-999,0.0,0.0,84,0.00,,,-99.99,FreeWX 2.03,2013-07-05 03:40:00,
2013-07-04 22:45:00,81.1,75.7,29.91,North,-999,0.0,0.0,84,0.00,,,-99.99,FreeWX 2.03,2013-07-05 03:45:00,
2013-07-04 22:50:00,81.0,75.7,29.91,North,-999,0.0,0.0,84,0.00,,,-99.99,FreeWX 2.03,2013-07-05 03:50:00,
2013-07-04 22:55:00,81.0,75.9,29.91,North,-999,0.0,0.0,85,0.00,,,-99.99,FreeWX 2.03,2013-07-05 03:55:00,
2013-07-04 23:00:00,81.0,75.9,29.91,North,-999,0.0,0.0,85,0.00,,,-99.99,FreeWX 2.03,2013-07-05 04:00:00,
2013-07-04 23:05:00,80.8,75.9,29.91,North,-999,0.0,0.0,85,0.00,,,-99.99,FreeWX 2.03,2013-07-05 04:05:00,
2013-07-04 23:10:00,80.8,75.9,29.91,North,-999,0.0,0.0,85,0.00,,,-99.99,FreeWX 2.03,2013-07-05 04:10:00,
2013-07-04 23:15:00,80.8,76.1,29.91,North,-999,0.0,0.0,86,0.00,,,-99.99,FreeWX 2.03,2013-07-05 04:15:00,
2013-07-04 23:20:00,80.8,76.1,29.91,North,-999,0.0,0.0,86,0.00,,,-99.99,FreeWX 2.03,2013-07-05 04:20:00,
2013-07-04 23:25:00,80.8,76.1,29.91,North,-999,0.0,0.0,86,0.00,,,-99.99,FreeWX 2.03,2013-07-05 04:25:00,
2013-07-04 23:30:00,80.8,76.5,29.91,North,-999,0.0,0.0,87,0.00,,,-99.99,FreeWX 2.03,2013-07-05 04:30:00,
2013-07-04 23:35:00,80.8,76.5,29.91,North,-999,0.0,0.0,87,0.00,,,-99.99,FreeWX 2.03,2013-07-05 04:35:00,
2013-07-04 23:40:00,80.8,76.5,29.91,North,-999,0.0,0.0,87,0.00,,,-99.99,FreeWX 2.03,2013-07-05 04:40:00,
2013-07-04 23:45:00,80.6,76.3,29.91,North,-999,0.0,0.0,87,0.00,,,-99.99,FreeWX 2.03,2013-07-05 04:45:00,
2013-07-04 23:50:00,80.6,76.6,29.91,North,-999,0.0,0.0,88,0.00,,,-99.99,FreeWX 2.03,2013-07-05 04:50:00,
2013-07-04 23:55:00,80.6,76.6,29.91,North,-999,0.0,0.0,88,0.00,,,-99.99,FreeWX 2.03,2013-07-05 04:55:00,